Time,TemperatureF,DewpointF,PressureIn,WindDirection,WindDirectionDegrees,WindSpeedMPH,WindSpeedGustMPH,Humidity,HourlyPrecipIn,Conditions,Clouds,dailyrainin,SoftwareType,DateUTC
2013-02-16 00:02:00,26.0,23.0,29.98,NNW,343,2.0,5.0,90,0.00,,,0.00,,2013-02-16 05:02:00,
2013-02-16 00:12:00,26.0,23.0,29.98,NNW,343,2.0,5.0,90,0.00,,,0.00,,2013-02-16 05:12:00,
2013-02-16 00:22:00,24.0,21.0,30.00,NW,304,1.0,2.0,88,0.00,,,0.00,,2013-02-16 05:22:00,
2013-02-16 00:32:00,24.0,21.0,30.00,NW,304,1.0,2.0,88,0.00,,,0.00,,2013-02-16 05:32:00,
2013-02-16 00:42:00,24.0,21.0,30.00,NW,304,1.0,2.0,88,0.00,,,0.00,,2013-02-16 05:42:00,
2013-02-16 00:52:00,24.0,21.0,30.00,NW,304,1.0,2.0,88,0.00,,,0.00,,2013-02-16 05:52:00,
2013-02-16 01:02:00,22.0,19.0,30.01,NW,324,2.0,4.0,88,0.00,,,0.00,,2013-02-16 06:02:00,
2013-02-16 01:11:00,22.0,19.0,30.01,NW,324,2.0,4.0,88,0.00,,,0.00,,2013-02-16 06:11:00,
2013-02-16 01:22:00,22.0,19.0,30.01,WNW,289,2.0,5.0,87,0.00,,,0.00,,2013-02-16 06:22:00,
2013-02-16 01:32:00,22.0,19.0,30.01,WNW,289,2.0,5.0,87,0.00,,,0.00,,2013-02-16 06:32:00,
2013-02-16 01:42:00,22.0,19.0,30.01,WNW,289,2.0,5.0,87,0.00,,,0.00,,2013-02-16 06:42:00,
2013-02-16 01:52:00,21.0,18.0,30.01,West,266,2.0,4.0,87,0.00,,,0.00,,2013-02-16 06:52:00,
2013-02-16 02:02:00,20.0,17.0,30.01,WNW,290,0.0,0.0,87,0.00,,,0.00,,2013-02-16 07:02:00,
2013-02-16 02:11:00,20.0,17.0,30.01,WNW,290,0.0,0.0,87,0.00,,,0.00,,2013-02-16 07:11:00,
2013-02-16 02:20:00,20.0,17.0,30.03,WSW,241,4.0,4.0,88,0.00,,,0.00,,2013-02-16 07:20:00,
2013-02-16 02:21:00,20.0,16.0,30.01,WNW,303,5.0,5.0,86,0.00,,,0.00,,2013-02-16 07:21:00,
2013-02-16 02:32:00,20.0,17.0,30.03,WSW,241,4.0,4.0,88,0.00,,,0.00,,2013-02-16 07:32:00,
2013-02-16 02:42:00,20.0,17.0,30.03,WSW,241,4.0,4.0,88,0.00,,,0.00,,2013-02-16 07:42:00,
2013-02-16 02:53:00,20.0,17.0,30.03,WSW,241,4.0,4.0,88,0.00,,,0.00,,2013-02-16 07:53:00,
2013-02-16 03:01:00,20.0,17.0,30.03,WSW,241,4.0,4.0,88,0.00,,,0.00,,2013-02-16 08:01:00,
2013-02-16 03:11:00,20.0,17.0,30.03,WSW,241,4.0,4.0,88,0.00,,,0.00,,2013-02-16 08:11:00,
2013-02-16 16:02:00,22.0,13.0,30.03,West,273,4.0,4.0,67,0.00,,,0.00,,2013-02-16 21:02:00,
2013-02-16 16:11:00,22.0,13.0,30.03,West,273,4.0,4.0,67,0.00,,,0.00,,2013-02-16 21:11:00,
2013-02-16 16:21:00,22.0,13.0,30.03,West,273,4.0,4.0,67,0.00,,,0.00,,2013-02-16 21:21:00,
2013-02-16 16:32:00,21.0,11.0,30.04,West,279,0.0,2.0,66,0.00,,,0.00,,2013-02-16 21:32:00,
2013-02-16 16:42:00,21.0,11.0,30.04,West,279,0.0,2.0,66,0.00,,,0.00,,2013-02-16 21:42:00,
2013-02-16 16:52:00,21.0,11.0,30.04,North,0,0.0,4.0,66,0.00,,,0.00,,2013-02-16 21:52:00,
2013-02-16 17:01:00,20.0,11.0,30.04,WNW,290,7.0,7.0,67,0.00,,,0.00,,2013-02-16 22:01:00,
2013-02-16 17:11:00,20.0,11.0,30.04,WNW,290,7.0,7.0,67,0.00,,,0.00,,2013-02-16 22:11:00,
2013-02-16 17:21:00,20.0,11.0,30.04,WNW,290,7.0,7.0,67,0.00,,,0.00,,2013-02-16 22:21:00,
2013-02-16 17:32:00,19.0,10.0,30.04,SW,232,0.0,2.0,66,0.00,,,0.00,,2013-02-16 22:32:00,
2013-02-16 17:42:00,19.0,10.0,30.04,SW,232,0.0,2.0,66,0.00,,,0.00,,2013-02-16 22:42:00,
2013-02-16 17:52:00,19.0,11.0,30.04,WNW,282,0.0,0.0,69,0.00,,,0.00,,2013-02-16 22:52:00,
2013-02-16 18:02:00,18.0,10.0,30.05,West,280,0.0,0.0,71,0.00,,,0.00,,2013-02-16 23:02:00,
2013-02-16 18:11:00,18.0,10.0,30.05,West,280,0.0,0.0,71,0.00,,,0.00,,2013-02-16 23:11:00,
2013-02-16 18:21:00,18.0,10.0,30.05,West,280,0.0,0.0,71,0.00,,,0.00,,2013-02-16 23:21:00,
2013-02-16 18:32:00,16.0,9.0,30.05,WNW,302,0.0,0.0,75,0.00,,,0.00,,2013-02-16 23:32:00,
2013-02-16 18:52:00,15.0,9.0,30.05,WNW,302,0.0,0.0,77,0.00,,,0.00,,2013-02-16 23:52:00,
2013-02-16 19:02:00,14.0,9.0,30.04,WNW,302,0.0,0.0,80,0.00,,,0.00,,2013-02-17 00:02:00,
2013-02-16 19:12:00,14.0,9.0,30.04,WNW,302,0.0,0.0,80,0.00,,,0.00,,2013-02-17 00:12:00,
2013-02-16 19:22:00,13.0,8.0,30.04,WNW,302,0.0,0.0,80,0.00,,,0.00,,2013-02-17 00:22:00,
2013-02-16 19:32:00,12.0,8.0,30.05,WNW,302,0.0,0.0,84,0.00,,,0.00,,2013-02-17 00:32:00,
2013-02-16 19:42:00,12.0,8.0,30.05,WNW,302,0.0,0.0,84,0.00,,,0.00,,2013-02-17 00:42:00,
2013-02-16 19:52:00,12.0,8.0,30.05,WNW,302,0.0,0.0,84,0.00,,,0.00,,2013-02-17 00:52:00,
2013-02-16 20:01:00,11.0,7.0,30.05,WNW,302,0.0,0.0,85,0.00,,,0.00,,2013-02-17 01:01:00,
2013-02-16 20:11:00,11.0,7.0,30.05,WNW,302,0.0,0.0,85,0.00,,,0.00,,2013-02-17 01:11:00,
2013-02-16 20:21:00,10.0,7.0,30.04,WNW,302,0.0,0.0,86,0.00,,,0.00,,2013-02-17 01:21:00,
2013-02-16 20:32:00,8.0,5.0,30.04,WNW,302,0.0,0.0,87,0.00,,,0.00,,2013-02-17 01:32:00,
2013-02-16 20:42:00,8.0,5.0,30.04,WNW,302,0.0,0.0,87,0.00,,,0.00,,2013-02-17 01:42:00,
2013-02-16 20:52:00,8.0,5.0,30.04,WNW,302,0.0,0.0,87,0.00,,,0.00,,2013-02-17 01:52:00,
2013-02-16 21:01:00,8.0,5.0,30.04,WNW,302,0.0,0.0,88,0.00,,,0.00,,2013-02-17 02:01:00,
2013-02-16 21:11:00,8.0,5.0,30.04,WNW,302,0.0,0.0,88,0.00,,,0.00,,2013-02-17 02:11:00,
2013-02-16 21:21:00,7.0,4.0,30.04,WNW,302,0.0,0.0,89,0.00,,,0.00,,2013-02-17 02:21:00,
2013-02-16 21:32:00,6.0,4.0,30.04,WNW,302,0.0,0.0,90,0.00,,,0.00,,2013-02-17 02:32:00,
2013-02-16 21:42:00,6.0,4.0,30.04,WNW,302,0.0,0.0,90,0.00,,,0.00,,2013-02-17 02:42:00,
2013-02-16 21:52:00,6.0,4.0,30.04,WNW,302,0.0,0.0,90,0.00,,,0.00,,2013-02-17 02:52:00,
2013-02-16 22:02:00,5.0,3.0,30.04,WNW,302,0.0,0.0,91,0.00,,,0.00,,2013-02-17 03:02:00,
2013-02-16 22:11:00,5.0,3.0,30.03,WNW,302,0.0,0.0,92,0.00,,,0.00,,2013-02-17 03:11:00,
2013-02-16 22:21:00,5.0,3.0,30.03,WNW,302,0.0,0.0,92,0.00,,,0.00,,2013-02-17 03:21:00,
2013-02-16 22:32:00,5.0,3.0,30.03,WNW,302,0.0,0.0,93,0.00,,,0.00,,2013-02-17 03:32:00,
2013-02-16 22:42:00,5.0,3.0,30.03,WNW,302,0.0,0.0,93,0.00,,,0.00,,2013-02-17 03:42:00,
2013-02-16 22:51:00,5.0,3.0,30.03,WNW,302,0.0,0.0,93,0.00,,,0.00,,2013-02-17 03:51:00,
2013-02-16 23:01:00,4.0,3.0,30.02,WNW,302,0.0,0.0,94,0.00,,,0.00,,2013-02-17 04:01:00,
2013-02-16 23:11:00,3.0,2.0,30.01,WNW,302,0.0,0.0,94,0.00,,,0.00,,2013-02-17 04:11:00,
2013-02-16 23:21:00,3.0,2.0,30.01,WNW,302,0.0,0.0,94,0.00,,,0.00,,2013-02-17 04:21:00,
2013-02-16 23:32:00,2.0,1.0,30.01,WNW,302,0.0,0.0,95,0.00,,,0.00,,2013-02-17 04:32:00,
2013-02-16 23:42:00,2.0,1.0,30.01,WNW,302,0.0,0.0,95,0.00,,,0.00,,2013-02-17 04:42:00,
2013-02-16 23:51:00,2.0,1.0,30.01,WNW,302,0.0,0.0,95,0.00,,,0.00,,2013-02-17 04:51:00,